« Back
NWS Peachtree City, Ga » Text Product » MCN Terminal Aerodrome Forecast


Printer-friendly Version
Current Version              Previous Versions:   1  2  3  4  5  6  7  8  9  

Terminal Aerodrome Forecast

469
FTUS42 KFFC 310540
TAFMCN
TAF
KMCN 310540Z 3106/0106 00000KT P6SM FEW100
     FM311400 04004KT P6SM FEW050
     FM311800 VRB04KT P6SM SCT060
     FM010000 00000KT P6SM SCT100=

USA.gov is the U.S. government's official web portal to all federal, state and local government web resources and services.